Regional Weather Roundup
Issued by NWS

Home | Current Version | Previous Version | Text Only | Print | Product List | Glossary On
Versions: 1 2 3 4 5 6 7 8 9 10 11 12 13 14 15 16 17 18 19 20 21 22 23 24 25 26 27 28 29 30 31 32 33 34 35 36 37 38 39 40 41 42 43 44 45 46 47 48 49 50
000
ASUS43 KDTX 291010
RWRMI
MICHIGAN HOURLY REGIONAL WEATHER ROUNDUP
NATIONAL WEATHER SERVICE DETROIT/PONTIAC MI
600 AM EDT THU SEP 29 2016

NOTE: "FAIR" INDICATES FEW OR NO CLOUDS BELOW 12,000 FEET WITH NO
SIGNIFICANT WEATHER AND/OR OBSTRUCTION TO VISIBILITY.

MIZ047>049-052>055-059>063-066>070-074>076-081>083-291100-
SOUTHEAST LOWER MICHIGAN

CITY           SKY/WX    TMP DP  RH WIND       PRES   REMARKS
ADRIAN         CLOUDY    58  58 100 NE8       30.03R
ALMA           PTCLDY    60  57  89 NE13      30.13R
ANN ARBOR      HVY RAIN  59  59 100 N7        30.02R FOG
BAD AXE        CLOUDY    59  55  88 E10G17    30.18R
CARO           CLOUDY    60  56  85 NE12G17   30.13R
DETROIT CITY   CLOUDY    60  60 100 NE13      30.04S
DETROIT        HVY RAIN  61  60  97 NE15G23   30.02R FOG
FLINT          RAIN      61  57  87 NE15      30.09R
HILLSDALE      CLOUDY    55  54  94 N5        30.02R
HOWELL         LGT RAIN  59  57  94 NE10      30.05S

CITY           SKY/WX    TMP DP  RH WIND       PRES   REMARKS
JACKSON        CLOUDY    58  57  97 NE10      30.04R
LAMBERTVILLE   CLOUDY    59  57  93 CALM      30.01R FOG
LANSING        LGT RAIN  59  55  87 NE12      30.07S
LAPEER         LGT RAIN  60  56  87 E14       30.10S
MASON          RAIN      58  56  95 NE7       30.06R
MONROE         CLOUDY    59  59 100 NW7       30.00S FOG
PONTIAC        LGT RAIN  59  56  89 NE14      30.05R FOG
PORT HURON     CLOUDY    59  57  94 NE14      30.10R
TRI CITIES     MOCLDY    62  56  80 NE20G26   30.15R
MIDLAND        MOCLDY    61  55  82 NE8       30.15R
TROY           HVY RAIN  60  57  91 NE16G23   30.07R
SAGINAW HB     CLOUDY    61  54  77 NE14G20   30.12R
$$
MIZ043>046-050>051-056>058-064>065-071>073-077>080-291100-
SOUTHWEST LOWER MICHIGAN

CITY           SKY/WX    TMP DP  RH WIND       PRES   REMARKS
BATTLE CREEK   HVY RAIN  57  56  96 NE14      30.05S FOG
BENTON HARBOR  LGT RAIN  58  54  86 VRB5      30.07R
BIG RAPIDS     CLEAR     57  54  88 NE9       30.18R
COLDWATER      CLOUDY    57  57  99 N7        30.03S
FREMONT        FAIR      56  51  84 NE8       30.15S
HOLLAND        MOCLDY    60  53  77 NE7       30.11R
GRAND RAPIDS   CLOUDY    58  52  80 NE15      30.10R
IONIA          MOCLDY    58  52  80 NE12G20   30.09R
KALAMAZOO      RAIN      57  54  89 N8        30.06S FOG
LUDINGTON      CLEAR     55  52  90 NE6       30.19R
MARSHALL       RAIN      57  56  97 NE3       30.04R
MOUNT PLEASANT CLEAR     59  55  86 N10G18    30.16R
MUSKEGON       PTCLDY    58  52  80 NE12      30.14R
SOUTH HAVEN    LGT RAIN  60  56  87 NE8       30.08R
$$
MIZ016>042-291100-
NORTHERN LOWER MICHIGAN

CITY           SKY/WX    TMP DP  RH WIND       PRES   REMARKS
ALPENA         CLEAR     58  55  90 NE10      30.29R
BEAVER ISLAND  CLEAR     56  54  91 CALM      30.32R
BELLAIRE       CLEAR     54  53  95 NE5       30.27R
CADILLAC       CLEAR     54  51  90 NE7       30.22R
CHARLEVOIX     CLEAR     59  56  89 NE8       30.32R
FRANKFORT      CLEAR     59  52  79 N5        30.24S
GAYLORD        MOCLDY    55  53  93 NE9       30.28R
GRAYLING       CLEAR     55  54  95 NE9G18    30.26R
HARBOR SPRINGS CLEAR     57  54  91 NE7       30.29S FOG
HOUGHTON LAKE  CLEAR     54  52  93 NE10      30.24R
MANISTEE       CLEAR     57  52  83 NE10      30.21R
OSCODA         CLEAR     60  56  85 NE16G22   30.23R
PELLSTON       CLEAR     50  48  93 CALM      30.31S
ROGERS CITY    CLEAR     60  57  88 E8        30.31R
TRAVERSE CITY  CLEAR     57  53  86 NE7       30.24R
$$
MIZ007>008-015-291100-
EASTERN UPPER MICHIGAN

CITY           SKY/WX    TMP DP  RH WIND       PRES   REMARKS
KINROSS        CLEAR     53  50  89 NE8       30.35R
MACKINAC ISLAN CLEAR     57  54  91 NE10      30.33R
NEWBERRY       CLEAR     51  50  97 N6        30.35S
S. S. MARIE    CLEAR     54  50  86 E5        30.35R
MUNISING         N/A     51  51 100 S3        30.36R
$$
MIZ004>006-011>014-085-291100-
CENTRAL UPPER MICHIGAN

CITY           SKY/WX    TMP DP  RH WIND       PRES   REMARKS
MANISTIQUE     CLEAR     51  49  92 N7        30.34R
ESCANABA       CLEAR     54  53  97 N5        30.34R
MENOMINEE      CLEAR     52  51  97 N8        30.32R
SAWYER-GWINN   CLOUDY    54  53  97 N7        30.39R FOG
$$
MIZ001>003-009>011-084-291100-
WESTERN UPPER MICHIGAN

CITY           SKY/WX    TMP DP  RH WIND       PRES   REMARKS
IRON MOUNTAIN  CLEAR     48  45  89 NW6       30.37R
HOUGHTON       CLEAR     51  49  92 N5        30.41R
COPPER HARBOR    N/A     58  55  90 E7        30.41R
IRONWOOD       CLOUDY    48  48 100 CALM      30.44S
$$

ABBREVIATIONS USED IN REMARKS
   TC - TEMPERATURE IN CELSIUS
  WCI - WIND CHILL INDEX
   HX - HEAT INDEX
  VSB - VISIBILITY





USA.gov is the U.S. government's official web portal to all federal, state and local government web resources and services.